Quincy, IL

11:01 AM CST on November 12, 2019 (GMT -0600)
Quincy Regional-Baldwin

Weather History for KUIN - September, 2019

Change the Weather History Date:

Friday, September 20, 2019

  Actual Average Record
Temperature  
Mean Temperature 78 °F 65 °F  
Max Temperature 89 °F 75 °F 95 °F (1940)
Min Temperature 68 °F 54 °F 34 °F (1991)
Degree Days  
Heating Degree Days 0 3  
Month to date heating degree days 0 32  
Since 1 July heating degree days 2 37  
Cooling Degree Days 14 3  
Month to date cooling degree days 189 101  
Year to date cooling degree days 1246 1054  
Growing Degree Days 28 (Base 50)    
Moisture  
Dew Point 67 °F    
Average Humidity 71    
Maximum Humidity 90    
Minimum Humidity 46    
Precipitation  
Precipitation 0.00 in 0.11 in 2.67 in (1986)
Month to date precipitation 0.76 2.18  
Year to date precipitation 31.79 27.93  
Sea Level Pressure  
Sea Level Pressure 30.04 in    
Wind  
Wind Speed 7 mph ()    
Max Wind Speed 15 mph    
Max Gust Speed 23 mph    
Visibility 9.1 miles    
Events      
T = Trace of Precipitation, MM = Missing Value Source: Averaged Metar Reports

Daily Weather History Graph

Daily Weather History Graph

Search for Another Location

Airport or City:

Astronomy

Sep. 20, 2019 Rise Set
Actual Time 6:50 AM CDT 7:05 PM CDT
Civil Twilight 6:23 AM CDT 7:32 PM CDT
Nautical Twilight 5:51 AM CDT 8:04 PM CDT
Astronomical Twilight 5:19 AM CDT 8:36 PM CDT
Moon 10:55 PM CDT (9/20) 12:55 PM CDT (9/20)
Length of Visible Light 13h 09m
Length of Day
12h 15m
Waning Gibbous, 65% of the Moon is Illuminated
Sep 20
Waning Gibbous
Sep 21
Last Quarter
Sep 28
New
Oct 5
First Quarter
Oct 13
Full

Hourly Weather History & Observations

Time (CDT) Temp. Heat Index Dew Point Humidity Pressure Visibility Wind Dir Wind Speed Gust Speed Precip Events Conditions
12:54 AM 75.0 °F - 68.0 °F 79% 30.03 in 9.0 mi SSE 6.9 mph - N/A   Clear
1:54 AM 73.0 °F - 66.9 °F 81% 30.03 in 8.0 mi SSE 5.8 mph - N/A   Clear
2:54 AM 73.0 °F - 66.9 °F 81% 30.03 in 8.0 mi South 4.6 mph - N/A   Clear
3:54 AM 72.0 °F - 66.0 °F 81% 30.04 in 7.0 mi South 4.6 mph - N/A   Clear
4:54 AM 69.1 °F - 66.0 °F 90% 30.04 in 8.0 mi South 4.6 mph - N/A   Clear
5:54 AM 71.1 °F - 64.9 °F 81% 30.04 in 8.0 mi South 4.6 mph - N/A   Clear
6:54 AM 69.1 °F - 64.0 °F 84% 30.05 in 7.0 mi SSE 4.6 mph - N/A   Clear
7:54 AM 71.1 °F - 66.0 °F 84% 30.07 in 7.0 mi SE 4.6 mph - N/A   Clear
8:54 AM 73.0 °F - 66.9 °F 81% 30.09 in 8.0 mi East 10.4 mph - N/A   Clear
9:54 AM 77.0 °F - 66.9 °F 71% 30.10 in 10.0 mi East 9.2 mph - N/A   Clear
10:54 AM 79.0 °F - 66.9 °F 66% 30.10 in 10.0 mi ESE 9.2 mph - N/A   Clear
11:54 AM 82.0 °F 84.5 °F 66.9 °F 60% 30.08 in 10.0 mi ESE 9.2 mph - N/A   Clear
12:54 PM 84.9 °F 88.8 °F 69.1 °F 59% 30.06 in 10.0 mi SE 9.2 mph - N/A   Clear
1:54 PM 88.0 °F 91.4 °F 68.0 °F 51% 30.04 in 10.0 mi SSE 11.5 mph - N/A   Clear
2:54 PM 87.1 °F 90.6 °F 68.0 °F 53% 30.03 in 10.0 mi SSE 10.4 mph - N/A   Partly Cloudy
3:54 PM 88.0 °F 90.7 °F 66.9 °F 49% 30.01 in 10.0 mi SSE 12.7 mph - N/A   Partly Cloudy
4:54 PM 88.0 °F 89.6 °F 64.9 °F 46% 30.00 in 10.0 mi South 11.5 mph - N/A   Partly Cloudy
5:54 PM 84.9 °F 88.2 °F 68.0 °F 57% 30.00 in 10.0 mi South 6.9 mph - N/A   Clear
6:54 PM 82.0 °F 85.5 °F 69.1 °F 65% 30.01 in 9.0 mi SSE 5.8 mph - N/A   Clear
7:54 PM 77.0 °F - 69.1 °F 76% 30.03 in 9.0 mi SSE 6.9 mph - N/A   Clear
8:54 PM 78.1 °F - 69.1 °F 74% 30.04 in 10.0 mi South 11.5 mph - N/A   Clear
9:54 PM 77.0 °F - 68.0 °F 74% 30.04 in 10.0 mi SSE 11.5 mph - N/A   Partly Cloudy
10:54 PM 75.0 °F - 66.0 °F 73% 30.04 in 10.0 mi South 10.4 mph - N/A   Clear
11:54 PM 73.0 °F - 66.0 °F 79% 30.04 in 10.0 mi South 11.5 mph 20.7 mph N/A   Clear